COSMOS 2485 (747)

Last updated on Nov. 11, 2019, 4:17 a.m. UTC

1 39155U 13019A   19314.79339038  .00000108  00000-0  00000+0 0  9995
2 39155  64.6771 154.8138 0018067 229.5086 129.9892  2.13101978 50917
UTC
Height (km)
Latitude
Longitude
Inclination
Orbital Period
UTC large
Height (km)
Speed (km/s)
/
Latitude / Longitude
Inclination (degrees)
Orbital Period (minutes)
Azimuth
Elevation
Range (km)
Doppler Factor
iOS Compass Heading
iOS Angle

Next 30 passes for location: Hong Kong

Rise time Rise Azimuth (degrees) Set time Set Azimuth (degrees) Duration Max altitude (degrees)

No matching passes for this satellites